Precipitable_Water
0.22 0.22 0.23 0.24 0.24 0.24 0.25 0.25 0.25 0.27 0.27 0.28 0.29 0.31 0.36 0.39 0.41 0.43 0.44 0.44 0.44 0.43 0.43 0.40 0.38 0.38 0.37 0.36 0.36 0.34 0.34 0.37 0.39 0.40 0.39 0.38 0.37 0.37 0.37 0.38 0.38 0.39 0.41 0.40 0.38 0.36 0.32 0.29 0.27 0.25 0.23 0.22 0.22 0.22 0.22 0.23 0.23 0.23 0.23 0.22 0.21 0.21 0.20 0.19 0.17 0.16 0.17 0.17 0.17 0.16 0.16 0.16 0.15 0.15 0.14 0.13 0.12 0.12 0.11 0.10 0.10 0.09 0.09 0.10 0.10
0.23 0.23 0.24 0.24 0.24 0.24 0.25 0.25 0.25 0.25 0.25 0.25 0.26 0.27 0.28 0.33 0.38 0.41 0.42 0.43 0.45 0.43 0.42 0.42 0.39 0.37 0.36 0.35 0.36 0.35 0.33 0.34 0.37 0.36 0.36 0.37 0.38 0.38 0.38 0.38 0.38 0.39 0.40 0.39 0.37 0.35 0.32 0.30 0.27 0.25 0.24 0.22 0.22 0.22 0.22 0.23 0.23 0.23 0.23 0.22 0.22 0.21 0.22 0.20 0.18 0.17 0.15 0.17 0.16 0.16 0.16 0.17 0.15 0.15 0.13 0.13 0.12 0.11 0.11 0.10 0.10 0.10 0.10 0.10 0.11
0.23 0.23 0.24 0.24 0.24 0.24 0.24 0.24 0.25 0.24 0.24 0.24 0.24 0.25 0.26 0.27 0.31 0.36 0.39 0.42 0.44 0.44 0.42 0.41 0.40 0.37 0.35 0.35 0.35 0.35 0.34 0.33 0.34 0.37 0.37 0.37 0.38 0.39 0.39 0.38 0.38 0.38 0.39 0.38 0.37 0.35 0.32 0.30 0.27 0.25 0.25 0.23 0.23 0.23 0.23 0.23 0.23 0.23 0.23 0.23 0.22 0.22 0.21 0.21 0.19 0.17 0.16 0.15 0.16 0.15 0.15 0.15 0.14 0.14 0.14 0.13 0.12 0.12 0.11 0.10 0.09 0.09 0.10 0.11 0.12
0.24 0.24 0.23 0.23 0.23 0.23 0.23 0.24 0.24 0.23 0.23 0.23 0.22 0.23 0.24 0.26 0.28 0.30 0.36 0.40 0.42 0.44 0.43 0.41 0.39 0.38 0.36 0.34 0.35 0.35 0.35 0.34 0.33 0.34 0.38 0.39 0.38 0.38 0.38 0.37 0.38 0.39 0.39 0.38 0.36 0.34 0.31 0.29 0.27 0.27 0.26 0.25 0.24 0.24 0.25 0.25 0.24 0.24 0.24 0.23 0.23 0.22 0.21 0.20 0.20 0.18 0.17 0.15 0.16 0.15 0.15 0.14 0.14 0.14 0.14 0.13 0.12 0.12 0.11 0.10 0.10 0.10 0.10 0.11 0.12
0.25 0.25 0.24 0.24 0.23 0.22 0.22 0.23 0.22 0.22 0.22 0.22 0.21 0.22 0.23 0.24 0.26 0.28 0.32 0.36 0.40 0.42 0.43 0.42 0.39 0.38 0.37 0.35 0.35 0.35 0.35 0.35 0.33 0.32 0.34 0.39 0.39 0.38 0.37 0.37 0.37 0.37 0.37 0.37 0.35 0.32 0.30 0.28 0.27 0.27 0.26 0.25 0.25 0.26 0.26 0.26 0.26 0.25 0.25 0.24 0.23 0.22 0.21 0.20 0.20 0.19 0.17 0.16 0.15 0.16 0.15 0.14 0.15 0.15 0.14 0.12 0.12 0.11 0.10 0.10 0.10 0.10 0.11 0.12 0.12
0.26 0.25 0.25 0.24 0.22 0.22 0.22 0.22 0.22 0.22 0.22 0.22 0.21 0.22 0.23 0.24 0.25 0.27 0.30 0.33 0.37 0.40 0.41 0.41 0.40 0.39 0.38 0.38 0.37 0.36 0.36 0.36 0.34 0.32 0.32 0.34 0.39 0.39 0.38 0.37 0.37 0.36 0.37 0.36 0.34 0.32 0.29 0.28 0.27 0.27 0.26 0.25 0.25 0.26 0.26 0.26 0.26 0.26 0.25 0.24 0.23 0.22 0.21 0.20 0.20 0.19 0.18 0.17 0.15 0.14 0.15 0.15 0.15 0.14 0.14 0.13 0.11 0.10 0.10 0.10 0.10 0.11 0.11 0.11 0.10
0.25 0.25 0.25 0.24 0.22 0.21 0.22 0.22 0.22 0.22 0.22 0.22 0.23 0.23 0.25 0.25 0.26 0.26 0.29 0.33 0.35 0.37 0.40 0.41 0.40 0.39 0.39 0.39 0.38 0.38 0.37 0.37 0.36 0.34 0.32 0.31 0.34 0.38 0.38 0.37 0.36 0.35 0.35 0.34 0.33 0.31 0.29 0.28 0.27 0.27 0.26 0.25 0.25 0.26 0.26 0.26 0.26 0.25 0.25 0.24 0.23 0.22 0.21 0.20 0.20 0.19 0.18 0.16 0.15 0.15 0.15 0.15 0.15 0.13 0.13 0.13 0.12 0.10 0.09 0.09 0.09 0.11 0.11 0.10 0.10
0.25 0.25 0.26 0.24 0.23 0.23 0.23 0.23 0.24 0.24 0.23 0.23 0.23 0.24 0.25 0.27 0.28 0.28 0.29 0.31 0.34 0.37 0.38 0.39 0.40 0.40 0.39 0.39 0.39 0.40 0.38 0.37 0.37 0.36 0.34 0.32 0.31 0.33 0.35 0.35 0.35 0.34 0.33 0.32 0.32 0.30 0.29 0.28 0.27 0.27 0.26 0.26 0.25 0.26 0.27 0.26 0.26 0.26 0.25 0.24 0.23 0.22 0.21 0.21 0.20 0.19 0.17 0.16 0.15 0.15 0.15 0.15 0.14 0.13 0.13 0.12 0.11 0.10 0.10 0.10 0.09 0.09 0.09 0.10 0.10
0.26 0.26 0.25 0.25 0.25 0.25 0.25 0.25 0.25 0.25 0.24 0.24 0.23 0.23 0.25 0.28 0.29 0.30 0.30 0.31 0.34 0.36 0.38 0.39 0.39 0.39 0.39 0.39 0.39 0.40 0.39 0.38 0.37 0.37 0.36 0.33 0.32 0.30 0.31 0.32 0.33 0.33 0.32 0.32 0.31 0.30 0.29 0.28 0.28 0.27 0.26 0.26 0.27 0.27 0.28 0.28 0.26 0.25 0.24 0.24 0.23 0.23 0.22 0.21 0.19 0.18 0.17 0.16 0.16 0.16 0.15 0.14 0.13 0.12 0.12 0.11 0.10 0.09 0.10 0.10 0.09 0.10 0.09 0.09 0.09
0.26 0.26 0.26 0.25 0.25 0.25 0.25 0.25 0.24 0.24 0.24 0.23 0.23 0.25 0.27 0.29 0.29 0.29 0.30 0.32 0.34 0.35 0.36 0.37 0.38 0.38 0.38 0.39 0.39 0.39 0.40 0.40 0.39 0.38 0.38 0.36 0.33 0.31 0.30 0.30 0.30 0.31 0.31 0.30 0.30 0.30 0.29 0.28 0.28 0.27 0.26 0.27 0.28 0.29 0.29 0.29 0.27 0.26 0.24 0.24 0.24 0.22 0.21 0.20 0.18 0.17 0.17 0.16 0.15 0.15 0.14 0.13 0.13 0.13 0.12 0.11 0.11 0.11 0.10 0.10 0.09 0.09 0.09 0.08 0.09
0.27 0.27 0.26 0.26 0.26 0.26 0.25 0.25 0.24 0.23 0.23 0.24 0.25 0.26 0.27 0.29 0.29 0.29 0.29 0.32 0.33 0.34 0.35 0.35 0.36 0.37 0.38 0.38 0.38 0.38 0.39 0.39 0.39 0.39 0.39 0.38 0.35 0.33 0.30 0.29 0.29 0.29 0.29 0.29 0.29 0.30 0.29 0.29 0.28 0.27 0.27 0.28 0.30 0.30 0.30 0.29 0.28 0.27 0.26 0.25 0.24 0.22 0.20 0.19 0.18 0.18 0.17 0.16 0.16 0.15 0.14 0.13 0.13 0.13 0.12 0.11 0.11 0.10 0.10 0.10 0.09 0.08 0.08 0.08 0.07
0.28 0.27 0.27 0.27 0.27 0.26 0.25 0.24 0.23 0.23 0.23 0.24 0.24 0.25 0.27 0.28 0.28 0.29 0.30 0.31 0.32 0.33 0.33 0.34 0.36 0.36 0.37 0.37 0.37 0.37 0.38 0.39 0.39 0.38 0.38 0.38 0.37 0.33 0.31 0.29 0.28 0.27 0.27 0.28 0.29 0.30 0.29 0.29 0.28 0.28 0.28 0.29 0.30 0.30 0.30 0.29 0.28 0.27 0.27 0.27 0.25 0.25 0.23 0.21 0.19 0.18 0.17 0.16 0.15 0.15 0.14 0.13 0.13 0.13 0.12 0.11 0.10 0.10 0.10 0.10 0.09 0.09 0.08 0.09 0.09
0.28 0.27 0.27 0.27 0.26 0.26 0.25 0.24 0.23 0.24 0.24 0.23 0.23 0.25 0.27 0.28 0.28 0.29 0.30 0.31 0.32 0.32 0.32 0.34 0.35 0.35 0.36 0.36 0.36 0.37 0.37 0.38 0.38 0.38 0.38 0.37 0.37 0.35 0.32 0.29 0.27 0.26 0.26 0.27 0.28 0.29 0.29 0.29 0.28 0.28 0.29 0.30 0.31 0.30 0.29 0.28 0.28 0.28 0.28 0.27 0.26 0.25 0.24 0.24 0.23 0.21 0.19 0.17 0.15 0.14 0.14 0.13 0.12 0.12 0.12 0.10 0.11 0.10 0.10 0.10 0.10 0.10 0.10 0.10 0.10
0.27 0.27 0.27 0.27 0.27 0.26 0.25 0.24 0.24 0.24 0.23 0.23 0.25 0.26 0.26 0.27 0.28 0.30 0.31 0.32 0.31 0.31 0.32 0.32 0.34 0.34 0.35 0.35 0.36 0.36 0.37 0.37 0.37 0.37 0.37 0.37 0.37 0.35 0.32 0.30 0.28 0.27 0.26 0.27 0.27 0.28 0.29 0.29 0.29 0.28 0.29 0.30 0.31 0.30 0.28 0.27 0.26 0.26 0.26 0.25 0.24 0.23 0.22 0.20 0.18 0.18 0.17 0.16 0.15 0.13 0.14 0.14 0.12 0.12 0.11 0.12 0.12 0.11 0.10 0.10 0.10 0.10 0.10 0.09 0.10
0.27 0.27 0.27 0.27 0.27 0.26 0.25 0.24 0.22 0.23 0.23 0.23 0.25 0.26 0.27 0.27 0.28 0.30 0.32 0.31 0.31 0.30 0.31 0.31 0.33 0.34 0.34 0.35 0.35 0.35 0.36 0.37 0.36 0.36 0.36 0.36 0.36 0.35 0.32 0.30 0.29 0.27 0.27 0.27 0.27 0.28 0.28 0.29 0.28 0.28 0.29 0.30 0.30 0.29 0.27 0.26 0.25 0.25 0.24 0.23 0.22 0.20 0.18 0.17 0.16 0.15 0.15 0.15 0.14 0.14 0.14 0.14 0.13 0.13 0.13 0.14 0.13 0.13 0.12 0.11 0.10 0.10 0.10 0.09 0.09
0.25 0.26 0.26 0.27 0.27 0.27 0.25 0.24 0.23 0.23 0.24 0.23 0.23 0.25 0.26 0.27 0.28 0.30 0.31 0.31 0.31 0.31 0.31 0.31 0.32 0.33 0.34 0.34 0.34 0.34 0.35 0.36 0.36 0.36 0.36 0.36 0.36 0.35 0.32 0.29 0.29 0.28 0.27 0.26 0.27 0.28 0.29 0.29 0.29 0.29 0.29 0.29 0.29 0.28 0.28 0.26 0.25 0.24 0.23 0.22 0.21 0.19 0.17 0.17 0.16 0.16 0.15 0.15 0.14 0.14 0.14 0.15 0.15 0.14 0.15 0.14 0.14 0.12 0.11 0.10 0.09 0.09 0.08 0.08 0.07
0.23 0.25 0.26 0.27 0.27 0.26 0.26 0.24 0.23 0.23 0.23 0.23 0.22 0.24 0.26 0.27 0.28 0.30 0.30 0.30 0.30 0.30 0.30 0.30 0.32 0.32 0.33 0.33 0.33 0.33 0.34 0.35 0.35 0.35 0.35 0.36 0.35 0.33 0.31 0.28 0.28 0.27 0.26 0.27 0.27 0.28 0.29 0.30 0.29 0.29 0.29 0.29 0.28 0.28 0.28 0.27 0.25 0.24 0.23 0.22 0.20 0.18 0.16 0.15 0.16 0.16 0.16 0.16 0.16 0.16 0.15 0.14 0.13 0.12 0.12 0.12 0.12 0.11 0.09 0.08 0.07 0.08 0.07 0.06 0.06
0.23 0.25 0.27 0.28 0.27 0.27 0.26 0.25 0.24 0.24 0.23 0.23 0.23 0.24 0.26 0.27 0.27 0.28 0.28 0.29 0.29 0.30 0.30 0.30 0.31 0.32 0.32 0.32 0.33 0.33 0.33 0.34 0.35 0.35 0.35 0.35 0.34 0.32 0.30 0.28 0.27 0.27 0.27 0.27 0.28 0.28 0.29 0.29 0.29 0.29 0.28 0.28 0.28 0.28 0.28 0.28 0.26 0.24 0.23 0.21 0.18 0.16 0.15 0.15 0.15 0.14 0.14 0.13 0.13 0.13 0.13 0.12 0.12 0.11 0.10 0.09 0.09 0.09 0.08 0.07 0.07 0.07 0.07 0.06 0.06
0.26 0.26 0.27 0.29 0.29 0.27 0.27 0.26 0.25 0.24 0.23 0.24 0.24 0.24 0.24 0.25 0.26 0.27 0.29 0.30 0.30 0.30 0.31 0.30 0.30 0.31 0.32 0.32 0.33 0.33 0.33 0.34 0.35 0.35 0.35 0.35 0.33 0.32 0.30 0.28 0.27 0.27 0.27 0.27 0.28 0.29 0.29 0.30 0.30 0.29 0.28 0.27 0.28 0.29 0.29 0.28 0.27 0.25 0.22 0.19 0.17 0.15 0.14 0.14 0.13 0.12 0.12 0.12 0.12 0.12 0.11 0.10 0.09 0.08 0.08 0.08 0.08 0.08 0.08 0.07 0.07 0.07 0.06 0.06 0.08
0.28 0.29 0.30 0.30 0.29 0.27 0.27 0.27 0.26 0.25 0.23 0.24 0.24 0.24 0.25 0.25 0.26 0.27 0.28 0.30 0.29 0.29 0.30 0.30 0.30 0.31 0.32 0.32 0.32 0.33 0.33 0.33 0.34 0.34 0.35 0.35 0.33 0.31 0.30 0.27 0.26 0.26 0.27 0.27 0.27 0.28 0.29 0.29 0.30 0.29 0.28 0.28 0.29 0.29 0.29 0.28 0.26 0.24 0.21 0.18 0.16 0.14 0.14 0.14 0.13 0.12 0.12 0.11 0.10 0.10 0.09 0.08 0.07 0.08 0.07 0.07 0.07 0.07 0.07 0.07 0.07 0.07 0.07 0.08 0.11
0.29 0.31 0.31 0.29 0.28 0.27 0.28 0.28 0.27 0.25 0.25 0.25 0.25 0.25 0.26 0.26 0.27 0.27 0.28 0.29 0.28 0.28 0.28 0.29 0.29 0.30 0.31 0.32 0.32 0.33 0.33 0.33 0.33 0.34 0.34 0.33 0.31 0.30 0.29 0.28 0.27 0.27 0.27 0.27 0.27 0.27 0.27 0.28 0.29 0.29 0.29 0.29 0.29 0.29 0.28 0.27 0.26 0.23 0.20 0.17 0.16 0.15 0.15 0.13 0.12 0.12 0.11 0.10 0.09 0.08 0.08 0.07 0.07 0.07 0.07 0.07 0.07 0.06 0.06 0.07 0.07 0.08 0.09 0.11 0.13
0.28 0.28 0.27 0.27 0.28 0.28 0.27 0.28 0.27 0.25 0.25 0.25 0.25 0.25 0.26 0.28 0.28 0.28 0.28 0.27 0.26 0.26 0.27 0.28 0.29 0.29 0.30 0.31 0.32 0.32 0.33 0.33 0.32 0.33 0.33 0.32 0.31 0.30 0.29 0.28 0.29 0.29 0.27 0.27 0.27 0.27 0.27 0.28 0.28 0.29 0.29 0.29 0.29 0.28 0.28 0.26 0.25 0.22 0.19 0.18 0.17 0.15 0.13 0.13 0.12 0.11 0.10 0.09 0.08 0.08 0.08 0.07 0.07 0.07 0.07 0.06 0.06 0.06 0.06 0.07 0.07 0.09 0.11 0.14 0.15
0.27 0.27 0.27 0.28 0.28 0.28 0.28 0.27 0.26 0.26 0.25 0.25 0.26 0.26 0.27 0.28 0.28 0.29 0.28 0.27 0.26 0.25 0.26 0.28 0.29 0.29 0.30 0.30 0.31 0.32 0.32 0.32 0.33 0.32 0.31 0.31 0.31 0.30 0.30 0.29 0.30 0.30 0.28 0.27 0.28 0.28 0.28 0.28 0.28 0.29 0.29 0.29 0.28 0.27 0.26 0.24 0.22 0.19 0.19 0.18 0.16 0.14 0.13 0.12 0.11 0.10 0.09 0.09 0.08 0.08 0.08 0.08 0.07 0.07 0.07 0.06 0.06 0.06 0.06 0.06 0.07 0.09 0.12 0.15 0.17
0.27 0.27 0.28 0.28 0.28 0.28 0.28 0.27 0.26 0.26 0.26 0.27 0.27 0.27 0.27 0.28 0.28 0.29 0.29 0.27 0.25 0.24 0.26 0.27 0.28 0.28 0.28 0.29 0.30 0.31 0.32 0.32 0.32 0.32 0.32 0.31 0.31 0.31 0.31 0.30 0.30 0.30 0.30 0.29 0.28 0.28 0.28 0.28 0.28 0.28 0.29 0.28 0.28 0.27 0.25 0.23 0.20 0.19 0.17 0.16 0.15 0.14 0.12 0.11 0.10 0.09 0.09 0.08 0.08 0.08 0.08 0.08 0.07 0.07 0.07 0.06 0.06 0.06 0.06 0.06 0.07 0.09 0.13 0.16 0.18
0.26 0.27 0.27 0.28 0.28 0.28 0.28 0.26 0.25 0.26 0.26 0.28 0.28 0.27 0.27 0.28 0.28 0.29 0.29 0.27 0.26 0.25 0.26 0.27 0.28 0.28 0.28 0.28 0.29 0.30 0.31 0.31 0.31 0.32 0.31 0.30 0.30 0.31 0.31 0.31 0.30 0.30 0.29 0.29 0.29 0.28 0.28 0.27 0.28 0.28 0.28 0.28 0.27 0.25 0.23 0.21 0.19 0.17 0.16 0.15 0.13 0.12 0.11 0.10 0.10 0.09 0.09 0.08 0.08 0.08 0.08 0.08 0.07 0.07 0.07 0.07 0.06 0.06 0.06 0.06 0.07 0.09 0.13 0.16 0.18
0.26 0.27 0.27 0.27 0.27 0.27 0.26 0.25 0.25 0.25 0.27 0.28 0.28 0.28 0.28 0.28 0.29 0.29 0.28 0.27 0.26 0.26 0.26 0.27 0.27 0.27 0.28 0.28 0.29 0.29 0.30 0.30 0.30 0.31 0.31 0.31 0.31 0.31 0.31 0.31 0.30 0.30 0.30 0.28 0.28 0.28 0.28 0.27 0.28 0.28 0.27 0.27 0.25 0.23 0.21 0.19 0.17 0.16 0.14 0.13 0.11 0.11 0.10 0.10 0.10 0.09 0.09 0.08 0.08 0.08 0.08 0.08 0.07 0.07 0.07 0.07 0.06 0.06 0.05 0.05 0.06 0.08 0.11 0.15 0.17
0.26 0.27 0.26 0.27 0.27 0.27 0.25 0.24 0.24 0.26 0.27 0.28 0.28 0.29 0.30 0.30 0.30 0.29 0.28 0.27 0.27 0.27 0.27 0.26 0.26 0.26 0.26 0.28 0.28 0.29 0.29 0.29 0.30 0.30 0.30 0.31 0.31 0.30 0.30 0.30 0.30 0.29 0.29 0.28 0.28 0.27 0.27 0.27 0.27 0.27 0.26 0.26 0.24 0.22 0.19 0.17 0.15 0.13 0.12 0.11 0.11 0.11 0.11 0.10 0.10 0.09 0.09 0.09 0.08 0.08 0.08 0.08 0.08 0.07 0.07 0.06 0.06 0.06 0.05 0.05 0.05 0.06 0.09 0.14 0.16
0.26 0.26 0.26 0.26 0.26 0.25 0.24 0.24 0.25 0.25 0.26 0.27 0.28 0.29 0.30 0.31 0.30 0.29 0.28 0.28 0.28 0.27 0.27 0.26 0.26 0.26 0.26 0.26 0.27 0.27 0.27 0.28 0.28 0.28 0.29 0.30 0.30 0.29 0.29 0.29 0.30 0.29 0.28 0.27 0.27 0.27 0.27 0.27 0.26 0.25 0.25 0.24 0.22 0.19 0.17 0.15 0.13 0.12 0.11 0.11 0.11 0.11 0.11 0.11 0.10 0.10 0.09 0.09 0.09 0.08 0.08 0.08 0.07 0.07 0.07 0.06 0.06 0.06 0.06 0.05 0.05 0.06 0.08 0.12 0.15
0.26 0.26 0.26 0.25 0.24 0.25 0.25 0.26 0.26 0.26 0.26 0.28 0.30 0.31 0.31 0.30 0.30 0.30 0.31 0.31 0.30 0.28 0.28 0.28 0.28 0.28 0.28 0.26 0.26 0.26 0.26 0.27 0.28 0.30 0.30 0.30 0.29 0.29 0.28 0.28 0.29 0.28 0.28 0.27 0.26 0.26 0.25 0.24 0.24 0.23 0.23 0.22 0.18 0.16 0.15 0.13 0.12 0.11 0.11 0.11 0.11 0.11 0.10 0.10 0.09 0.09 0.09 0.09 0.09 0.08 0.08 0.08 0.07 0.07 0.06 0.06 0.06 0.06 0.06 0.05 0.05 0.05 0.06 0.09 0.12
0.25 0.26 0.25 0.24 0.25 0.25 0.25 0.25 0.25 0.25 0.26 0.28 0.29 0.30 0.33 0.33 0.33 0.31 0.31 0.32 0.33 0.32 0.32 0.30 0.30 0.29 0.28 0.29 0.29 0.27 0.26 0.27 0.29 0.30 0.30 0.30 0.29 0.29 0.29 0.29 0.29 0.28 0.28 0.27 0.26 0.24 0.23 0.23 0.23 0.23 0.22 0.19 0.16 0.14 0.13 0.12 0.11 0.11 0.11 0.11 0.11 0.11 0.10 0.10 0.10 0.10 0.10 0.09 0.09 0.08 0.08 0.08 0.07 0.07 0.06 0.06 0.06 0.06 0.06 0.05 0.05 0.05 0.05 0.07 0.10
0.25 0.25 0.25 0.24 0.24 0.24 0.24 0.24 0.25 0.25 0.27 0.28 0.28 0.28 0.29 0.31 0.33 0.33 0.32 0.32 0.32 0.32 0.32 0.32 0.32 0.31 0.30 0.28 0.28 0.30 0.30 0.30 0.29 0.30 0.30 0.30 0.29 0.29 0.29 0.29 0.29 0.28 0.27 0.26 0.24 0.23 0.22 0.22 0.22 0.22 0.21 0.17 0.15 0.14 0.12 0.11 0.11 0.11 0.11 0.11 0.11 0.11 0.10 0.10 0.10 0.10 0.10 0.09 0.09 0.09 0.08 0.08 0.07 0.07 0.06 0.06 0.06 0.06 0.06 0.05 0.05 0.05 0.05 0.06 0.08
0.24 0.24 0.24 0.24 0.24 0.24 0.25 0.25 0.26 0.26 0.27 0.28 0.28 0.28 0.28 0.27 0.28 0.31 0.32 0.31 0.31 0.31 0.31 0.31 0.31 0.31 0.31 0.30 0.29 0.28 0.29 0.30 0.30 0.30 0.30 0.29 0.29 0.29 0.28 0.28 0.28 0.28 0.27 0.26 0.23 0.23 0.23 0.22 0.22 0.22 0.18 0.16 0.14 0.13 0.12 0.11 0.11 0.11 0.11 0.11 0.11 0.11 0.10 0.10 0.11 0.10 0.10 0.09 0.09 0.09 0.08 0.08 0.07 0.07 0.07 0.06 0.06 0.06 0.05 0.05 0.05 0.05 0.05 0.06 0.07
0.23 0.24 0.24 0.24 0.24 0.24 0.25 0.25 0.26 0.26 0.26 0.27 0.27 0.27 0.26 0.25 0.24 0.26 0.30 0.31 0.31 0.31 0.31 0.30 0.30 0.30 0.30 0.30 0.30 0.28 0.28 0.28 0.29 0.29 0.29 0.29 0.28 0.28 0.28 0.28 0.27 0.27 0.26 0.24 0.23 0.22 0.22 0.23 0.22 0.20 0.17 0.15 0.14 0.12 0.11 0.11 0.11 0.11 0.11 0.11 0.11 0.11 0.11 0.11 0.11 0.10 0.10 0.09 0.09 0.08 0.08 0.08 0.08 0.07 0.07 0.07 0.06 0.06 0.05 0.05 0.05 0.05 0.05 0.05 0.06
0.23 0.23 0.23 0.22 0.22 0.24 0.25 0.25 0.25 0.26 0.27 0.27 0.28 0.26 0.25 0.25 0.25 0.25 0.26 0.28 0.29 0.29 0.29 0.29 0.29 0.29 0.28 0.28 0.29 0.28 0.28 0.28 0.28 0.28 0.29 0.28 0.28 0.28 0.27 0.27 0.27 0.26 0.25 0.23 0.23 0.22 0.22 0.22 0.22 0.19 0.16 0.15 0.13 0.12 0.11 0.11 0.11 0.11 0.11 0.11 0.11 0.11 0.11 0.11 0.10 0.10 0.09 0.09 0.09 0.09 0.08 0.08 0.08 0.07 0.07 0.07 0.06 0.06 0.06 0.05 0.05 0.05 0.05 0.05 0.05
0.23 0.24 0.23 0.23 0.22 0.23 0.24 0.25 0.26 0.27 0.27 0.27 0.27 0.25 0.24 0.25 0.25 0.25 0.26 0.26 0.26 0.26 0.27 0.27 0.27 0.27 0.26 0.26 0.28 0.28 0.27 0.27 0.27 0.28 0.28 0.28 0.27 0.27 0.27 0.25 0.24 0.24 0.23 0.23 0.23 0.23 0.22 0.22 0.21 0.19 0.16 0.14 0.12 0.12 0.11 0.11 0.11 0.11 0.11 0.11 0.11 0.11 0.11 0.11 0.10 0.10 0.09 0.09 0.09 0.09 0.08 0.08 0.08 0.08 0.07 0.07 0.07 0.06 0.06 0.06 0.06 0.05 0.05 0.05 0.05
0.22 0.23 0.23 0.22 0.22 0.22 0.23 0.25 0.26 0.27 0.27 0.26 0.27 0.26 0.25 0.25 0.25 0.26 0.27 0.28 0.28 0.27 0.27 0.28 0.27 0.26 0.26 0.26 0.27 0.28 0.27 0.27 0.27 0.27 0.27 0.27 0.27 0.27 0.24 0.24 0.23 0.23 0.22 0.23 0.23 0.23 0.23 0.22 0.21 0.18 0.16 0.14 0.12 0.12 0.12 0.11 0.12 0.11 0.11 0.11 0.11 0.11 0.11 0.10 0.10 0.09 0.09 0.09 0.09 0.09 0.08 0.08 0.08 0.08 0.08 0.07 0.07 0.07 0.06 0.06 0.06 0.06 0.06 0.05 0.05
0.22 0.22 0.23 0.22 0.22 0.22 0.23 0.25 0.26 0.27 0.27 0.27 0.27 0.26 0.25 0.25 0.26 0.26 0.27 0.28 0.28 0.28 0.27 0.27 0.27 0.27 0.28 0.28 0.29 0.29 0.29 0.28 0.27 0.27 0.27 0.27 0.26 0.26 0.25 0.24 0.23 0.22 0.22 0.22 0.23 0.23 0.22 0.22 0.21 0.18 0.15 0.13 0.12 0.12 0.12 0.12 0.12 0.12 0.11 0.11 0.11 0.11 0.10 0.10 0.09 0.09 0.09 0.08 0.09 0.09 0.08 0.08 0.08 0.08 0.08 0.07 0.07 0.07 0.07 0.06 0.06 0.06 0.06 0.06 0.05
0.21 0.22 0.22 0.22 0.22 0.22 0.22 0.23 0.24 0.26 0.26 0.26 0.26 0.26 0.25 0.25 0.25 0.26 0.26 0.27 0.28 0.27 0.27 0.27 0.27 0.26 0.26 0.27 0.29 0.29 0.29 0.29 0.29 0.28 0.28 0.27 0.26 0.26 0.25 0.24 0.23 0.23 0.23 0.23 0.22 0.22 0.22 0.22 0.20 0.17 0.15 0.13 0.12 0.12 0.12 0.12 0.12 0.12 0.11 0.11 0.11 0.10 0.10 0.10 0.09 0.09 0.08 0.08 0.08 0.08 0.08 0.08 0.08 0.08 0.08 0.07 0.07 0.07 0.07 0.07 0.07 0.06 0.06 0.06 0.06
0.21 0.22 0.22 0.23 0.22 0.21 0.22 0.22 0.23 0.24 0.24 0.25 0.25 0.25 0.25 0.25 0.25 0.25 0.26 0.26 0.27 0.27 0.27 0.27 0.27 0.27 0.27 0.28 0.29 0.30 0.28 0.27 0.26 0.25 0.26 0.26 0.26 0.26 0.25 0.24 0.23 0.23 0.23 0.23 0.23 0.23 0.22 0.20 0.18 0.16 0.14 0.13 0.12 0.12 0.12 0.12 0.12 0.12 0.11 0.11 0.11 0.10 0.10 0.09 0.09 0.09 0.08 0.08 0.08 0.08 0.08 0.08 0.08 0.08 0.08 0.08 0.07 0.07 0.07 0.07 0.07 0.07 0.07 0.06 0.06
0.21 0.21 0.22 0.23 0.23 0.23 0.22 0.22 0.23 0.23 0.24 0.24 0.24 0.25 0.25 0.25 0.25 0.25 0.25 0.25 0.25 0.27 0.27 0.27 0.26 0.27 0.27 0.28 0.28 0.29 0.27 0.26 0.26 0.26 0.26 0.26 0.25 0.25 0.24 0.24 0.23 0.23 0.23 0.23 0.23 0.23 0.21 0.19 0.17 0.15 0.13 0.13 0.12 0.12 0.12 0.12 0.12 0.12 0.11 0.11 0.10 0.10 0.09 0.09 0.09 0.08 0.08 0.08 0.08 0.08 0.08 0.08 0.08 0.07 0.08 0.08 0.08 0.08 0.08 0.07 0.07 0.07 0.07 0.07 0.07
0.21 0.22 0.22 0.23 0.23 0.23 0.22 0.22 0.22 0.23 0.23 0.24 0.25 0.25 0.24 0.24 0.25 0.25 0.25 0.24 0.24 0.26 0.27 0.27 0.27 0.27 0.28 0.28 0.29 0.28 0.27 0.26 0.26 0.26 0.25 0.25 0.25 0.25 0.24 0.24 0.24 0.23 0.23 0.23 0.23 0.22 0.20 0.17 0.16 0.14 0.13 0.13 0.13 0.12 0.12 0.12 0.12 0.11 0.11 0.10 0.10 0.10 0.09 0.09 0.09 0.08 0.08 0.08 0.08 0.08 0.08 0.08 0.08 0.08 0.07 0.07 0.08 0.08 0.08 0.08 0.08 0.08 0.08 0.07 0.07
0.21 0.22 0.22 0.22 0.23 0.23 0.23 0.22 0.22 0.23 0.24 0.24 0.24 0.24 0.24 0.24 0.24 0.24 0.24 0.24 0.24 0.24 0.26 0.27 0.27 0.27 0.28 0.29 0.29 0.28 0.27 0.27 0.26 0.25 0.25 0.25 0.25 0.25 0.24 0.24 0.24 0.24 0.23 0.23 0.23 0.22 0.19 0.17 0.15 0.14 0.13 0.13 0.13 0.13 0.13 0.12 0.12 0.11 0.10 0.10 0.10 0.09 0.09 0.09 0.08 0.08 0.08 0.08 0.08 0.08 0.08 0.08 0.08 0.08 0.08 0.08 0.08 0.08 0.08 0.08 0.08 0.08 0.08 0.08 0.07
0.22 0.22 0.22 0.22 0.23 0.23 0.23 0.23 0.23 0.23 0.23 0.24 0.24 0.25 0.25 0.24 0.24 0.24 0.24 0.24 0.24 0.24 0.25 0.26 0.27 0.27 0.28 0.28 0.29 0.28 0.27 0.26 0.26 0.25 0.25 0.25 0.24 0.24 0.24 0.24 0.24 0.24 0.24 0.23 0.23 0.22 0.19 0.16 0.15 0.14 0.13 0.13 0.13 0.13 0.13 0.12 0.12 0.11 0.10 0.10 0.10 0.09 0.09 0.08 0.08 0.08 0.08 0.08 0.08 0.08 0.08 0.08 0.08 0.08 0.08 0.08 0.08 0.08 0.08 0.08 0.08 0.08 0.08 0.08 0.08
0.22 0.22 0.22 0.22 0.23 0.23 0.24 0.24 0.23 0.23 0.23 0.24 0.25 0.25 0.25 0.25 0.24 0.24 0.24 0.24 0.24 0.24 0.24 0.25 0.25 0.26 0.27 0.28 0.28 0.27 0.26 0.26 0.25 0.25 0.25 0.24 0.24 0.24 0.24 0.24 0.24 0.24 0.24 0.23 0.22 0.21 0.19 0.16 0.15 0.14 0.13 0.13 0.14 0.14 0.13 0.12 0.12 0.11 0.10 0.10 0.09 0.09 0.09 0.08 0.08 0.08 0.08 0.08 0.08 0.08 0.08 0.08 0.08 0.08 0.08 0.08 0.08 0.08 0.08 0.08 0.08 0.08 0.08 0.08 0.08
0.22 0.22 0.22 0.22 0.23 0.23 0.24 0.24 0.24 0.24 0.25 0.25 0.25 0.26 0.26 0.25 0.25 0.25 0.24 0.24 0.24 0.24 0.24 0.24 0.24 0.25 0.26 0.27 0.27 0.26 0.26 0.26 0.25 0.25 0.25 0.24 0.24 0.24 0.24 0.24 0.24 0.24 0.23 0.22 0.21 0.19 0.17 0.16 0.15 0.14 0.13 0.13 0.14 0.13 0.13 0.12 0.12 0.11 0.11 0.10 0.09 0.09 0.09 0.09 0.09 0.09 0.09 0.09 0.09 0.09 0.09 0.08 0.08 0.08 0.08 0.08 0.08 0.08 0.08 0.08 0.08 0.08 0.08 0.08 0.08
0.22 0.22 0.22 0.22 0.23 0.24 0.24 0.25 0.25 0.25 0.25 0.25 0.25 0.26 0.26 0.25 0.25 0.25 0.25 0.24 0.24 0.24 0.24 0.23 0.23 0.24 0.26 0.26 0.26 0.26 0.26 0.25 0.25 0.25 0.24 0.24 0.24 0.24 0.24 0.24 0.24 0.24 0.23 0.22 0.20 0.18 0.17 0.16 0.15 0.14 0.13 0.13 0.13 0.13 0.12 0.12 0.11 0.11 0.11 0.10 0.10 0.09 0.09 0.09 0.09 0.09 0.09 0.09 0.09 0.09 0.09 0.09 0.09 0.09 0.09 0.09 0.09 0.09 0.09 0.09 0.09 0.09 0.09 0.09 0.08
0.22 0.22 0.22 0.23 0.23 0.24 0.25 0.25 0.26 0.26 0.26 0.26 0.27 0.27 0.26 0.26 0.26 0.25 0.25 0.24 0.24 0.24 0.24 0.24 0.24 0.24 0.25 0.26 0.26 0.26 0.26 0.25 0.25 0.24 0.24 0.24 0.24 0.24 0.24 0.24 0.24 0.23 0.23 0.21 0.19 0.17 0.16 0.16 0.15 0.14 0.13 0.13 0.13 0.12 0.12 0.12 0.11 0.11 0.10 0.10 0.10 0.10 0.10 0.10 0.10 0.10 0.10 0.10 0.10 0.09 0.09 0.09 0.09 0.09 0.09 0.09 0.09 0.09 0.09 0.09 0.09 0.09 0.09 0.09 0.09
0.22 0.22 0.23 0.23 0.24 0.24 0.25 0.26 0.26 0.27 0.27 0.27 0.28 0.28 0.27 0.26 0.26 0.25 0.24 0.24 0.24 0.24 0.24 0.24 0.24 0.24 0.25 0.26 0.26 0.26 0.26 0.25 0.25 0.24 0.24 0.24 0.24 0.24 0.24 0.24 0.24 0.23 0.22 0.21 0.19 0.17 0.16 0.15 0.15 0.14 0.13 0.12 0.12 0.12 0.11 0.11 0.11 0.10 0.10 0.10 0.10 0.10 0.10 0.10 0.10 0.10 0.10 0.10 0.10 0.10 0.10 0.09 0.09 0.09 0.09 0.09 0.10 0.10 0.10 0.10 0.10 0.10 0.09 0.09 0.09
0.22 0.22 0.23 0.23 0.24 0.24 0.25 0.26 0.26 0.27 0.28 0.29 0.29 0.27 0.27 0.27 0.25 0.25 0.25 0.24 0.24 0.24 0.24 0.24 0.24 0.24 0.26 0.26 0.26 0.26 0.26 0.25 0.25 0.25 0.24 0.24 0.23 0.24 0.24 0.24 0.23 0.23 0.22 0.21 0.19 0.17 0.16 0.15 0.15 0.14 0.13 0.12 0.12 0.11 0.11 0.10 0.10 0.10 0.10 0.10 0.10 0.10 0.10 0.10 0.10 0.10 0.10 0.10 0.10 0.10 0.10 0.10 0.10 0.10 0.10 0.10 0.10 0.10 0.10 0.10 0.10 0.10 0.09 0.09 0.09
0.22 0.23 0.23 0.23 0.24 0.25 0.26 0.26 0.27 0.28 0.28 0.29 0.28 0.28 0.28 0.27 0.26 0.25 0.25 0.25 0.24 0.24 0.23 0.24 0.24 0.25 0.26 0.26 0.26 0.26 0.26 0.25 0.25 0.24 0.24 0.23 0.23 0.23 0.23 0.23 0.23 0.22 0.21 0.21 0.19 0.16 0.16 0.15 0.14 0.14 0.13 0.12 0.12 0.11 0.10 0.10 0.10 0.10 0.10 0.10 0.11 0.10 0.10 0.10 0.10 0.10 0.10 0.10 0.10 0.10 0.10 0.10 0.10 0.10 0.10 0.10 0.10 0.10 0.10 0.10 0.09 0.09 0.09 0.09 0.09
0.22 0.23 0.23 0.24 0.24 0.25 0.25 0.26 0.26 0.27 0.28 0.28 0.28 0.28 0.27 0.26 0.25 0.25 0.24 0.24 0.24 0.23 0.23 0.23 0.24 0.25 0.26 0.26 0.26 0.26 0.26 0.25 0.25 0.24 0.24 0.23 0.23 0.23 0.23 0.23 0.22 0.21 0.21 0.20 0.18 0.16 0.15 0.15 0.14 0.14 0.13 0.12 0.11 0.10 0.10 0.10 0.10 0.10 0.10 0.10 0.10 0.10 0.10 0.10 0.10 0.10 0.10 0.10 0.10 0.10 0.10 0.10 0.10 0.10 0.10 0.10 0.10 0.09 0.09 0.09 0.09 0.09 0.09 0.09 0.09
Wind_Speed
48 48 47 47 47 47 47 47 47 48 48 47 47 47 48 48 48 47 46 45 44 44 43 42 42 41 41 40 39 38 37 37 37 36 36 36 36 37 38 39 39 40 39 39 38 37 37 37 37 37 37 37 37 37 36 36 36 37 37 37 37 37 37 37 37 38 38 38 39 39 39 40 41 42 43 44 45 46 47 47 48 48 48 47 47
46 46 46 46 47 47 47 48 48 48 48 48 47 47 48 48 49 48 48 47 46 45 44 43 42 42 42 41 39 38 37 37 37 37 37 37 37 37 37 37 38 38 39 38 37 37 36 36 36 36 36 37 37 37 37 37 37 37 37 38 38 37 37 37 38 38 38 38 39 39 39 39 41 42 43 44 45 46 46 47 47 47 47 47 46
41 42 43 44 45 46 47 47 48 48 48 49 49 49 49 50 50 50 50 49 48 47 46 45 44 43 43 42 41 39 38 37 37 37 37 37 37 37 37 37 37 37 38 38 37 36 36 36 36 35 36 36 37 38 38 37 37 38 38 38 38 38 38 38 38 38 38 38 38 39 40 40 41 42 43 44 45 46 46 46 46 46 46 46 45
37 38 39 41 42 44 45 46 47 48 48 49 50 51 51 51 51 51 52 51 50 49 49 47 46 44 44 44 43 41 39 38 38 37 37 37 37 36 36 36 36 37 37 37 37 36 36 36 35 35 35 36 37 37 37 38 38 39 39 39 39 39 38 38 38 38 38 38 39 39 40 41 42 43 43 44 45 46 47 46 46 45 45 45 45
36 37 37 38 40 41 42 43 45 46 47 49 50 51 52 52 53 53 52 52 51 50 50 49 47 45 44 44 44 43 41 40 39 38 38 37 37 36 36 36 36 36 36 37 37 36 36 36 36 35 35 35 36 36 37 38 38 39 39 39 39 38 38 38 38 38 38 39 40 39 40 41 42 42 43 44 45 46 46 46 45 44 44 44 45
36 36 36 37 38 39 40 41 42 44 45 46 47 48 49 50 52 52 52 52 51 49 49 49 48 46 44 44 44 43 42 41 40 39 38 38 37 36 36 36 35 35 36 36 36 36 36 36 35 35 35 35 35 36 36 37 37 38 38 38 38 38 37 37 37 38 38 39 40 40 40 41 41 41 42 43 45 46 46 45 44 43 43 44 45
35 35 36 36 38 39 40 40 41 42 42 43 44 44 45 46 47 48 49 50 50 49 48 48 48 47 45 43 43 43 42 41 41 39 39 38 37 37 36 36 36 36 36 36 36 36 36 36 35 35 35 35 35 35 35 36 37 37 38 38 37 37 36 37 37 37 38 39 39 39 40 40 40 41 42 43 44 44 44 44 43 43 44 46 47
35 35 35 36 37 39 39 40 40 41 41 42 42 42 42 42 43 43 45 46 48 48 47 47 47 47 45 44 43 43 43 42 41 40 39 38 38 37 36 36 36 36 37 37 36 36 36 36 36 35 35 35 35 35 35 35 36 36 36 36 36 36 36 36 36 37 37 38 38 39 39 40 40 41 42 42 43 42 42 43 43 44 46 47 47
35 35 36 37 38 39 40 40 40 40 40 40 40 40 40 39 39 39 40 42 43 45 46 46 47 48 47 45 44 43 43 43 42 41 40 39 38 37 37 36 36 36 37 37 36 36 36 36 36 36 35 35 34 34 34 35 35 35 35 35 34 34 35 35 35 36 36 37 37 38 38 39 40 41 41 41 42 43 43 43 44 45 46 47 46
35 35 36 37 38 39 40 40 40 40 40 39 39 38 37 37 37 37 37 38 39 40 42 43 45 47 48 47 46 44 43 42 42 42 41 40 38 37 37 36 36 36 36 36 36 36 36 36 35 36 36 35 34 34 34 34 35 34 34 33 33 34 34 34 34 35 35 36 36 37 37 38 39 40 41 41 42 43 43 43 44 46 46 46 44
36 36 37 38 39 40 40 40 40 40 39 38 37 36 36 36 35 35 34 35 35 36 38 39 40 43 45 45 45 44 43 42 41 41 40 40 38 37 36 35 35 35 35 35 35 36 36 36 35 36 35 34 34 33 33 33 34 33 33 33 33 33 33 33 33 34 35 35 35 36 37 38 38 39 40 42 42 42 42 43 45 45 44 44 42
36 37 38 39 39 40 40 40 40 39 38 37 36 34 34 34 33 33 32 32 33 33 35 36 37 39 41 43 43 42 42 42 41 41 40 40 39 37 36 35 35 35 35 36 36 36 35 35 35 35 34 33 33 33 32 32 32 32 32 32 32 32 33 33 33 34 34 34 35 36 37 38 39 39 40 42 42 42 43 43 44 44 43 42 41
37 38 38 39 40 40 40 40 39 37 36 35 33 32 32 32 31 30 30 30 30 31 32 34 35 36 38 40 41 40 41 41 41 41 41 41 40 38 37 36 35 35 35 35 36 35 35 34 34 33 33 33 32 32 31 31 30 31 31 31 31 32 32 33 33 33 33 34 35 36 37 38 39 40 40 41 42 42 43 42 42 42 42 41 41
38 38 39 39 40 40 39 39 37 36 34 33 32 31 30 29 28 28 28 28 28 28 30 31 33 34 36 38 39 39 40 41 41 41 41 42 41 39 37 36 35 34 34 34 35 34 34 34 33 32 31 32 31 31 30 30 29 29 29 29 30 31 31 32 33 34 35 35 36 37 38 39 40 40 40 40 41 41 41 41 41 42 43 43 43
39 39 39 40 39 39 39 38 36 35 33 31 30 29 28 27 26 25 24 25 25 26 27 29 30 32 34 36 37 38 39 40 41 41 41 41 41 40 37 35 34 33 33 33 33 34 34 34 32 31 30 31 30 29 29 28 28 28 28 28 29 30 30 31 32 33 34 35 36 37 37 38 39 39 39 38 39 39 40 42 43 44 44 44 43
39 39 39 39 39 39 38 37 35 34 32 30 28 27 26 25 24 23 23 23 24 25 25 26 28 28 30 33 35 36 37 38 39 39 39 38 38 37 36 34 33 32 32 32 32 33 34 33 32 30 30 29 29 29 28 27 27 27 27 27 28 29 29 31 32 32 33 34 34 35 36 36 37 37 38 38 39 40 41 43 43 43 43 42 40
39 39 39 39 39 38 37 36 34 32 30 28 27 26 25 25 24 23 23 23 23 24 24 24 25 26 27 29 31 32 32 33 34 35 35 35 34 33 32 32 31 31 31 31 32 33 33 33 31 30 29 28 28 27 27 26 26 26 26 27 27 28 29 30 30 31 32 32 33 34 35 36 37 38 39 40 40 40 41 41 41 41 40 39 38
39 38 38 38 38 37 35 34 33 31 29 27 25 25 25 24 24 23 23 22 22 23 22 23 23 24 24 26 28 28 28 29 31 31 32 32 31 31 30 30 30 30 29 30 31 32 32 31 30 28 27 27 26 26 25 25 24 25 25 26 26 27 28 28 28 29 30 31 32 33 35 36 36 37 38 39 39 39 39 39 40 39 38 38 37
38 37 37 37 37 36 34 33 32 30 27 25 24 24 24 24 24 24 23 22 22 21 21 21 21 22 22 23 24 25 26 27 28 29 29 30 29 29 29 28 28 28 28 29 29 29 29 29 29 27 26 25 25 25 24 24 23 24 24 24 25 26 26 26 27 28 29 30 31 32 33 34 34 35 36 36 37 37 37 38 38 38 37 36 36
38 36 35 36 36 34 32 31 30 28 26 24 23 23 24 24 25 24 23 22 20 19 19 19 19 19 19 20 21 22 24 24 25 27 27 28 28 27 26 26 26 26 26 27 27 27 26 26 26 26 25 24 24 23 23 23 23 23 23 23 24 24 25 25 25 26 27 28 29 31 31 32 32 33 34 35 35 36 36 36 36 36 35 35 35
36 35 34 35 35 33 31 30 29 27 25 23 22 23 23 24 24 23 22 20 18 18 17 16 17 17 18 18 18 20 21 22 23 25 25 26 27 26 25 24 23 23 24 24 25 25 25 25 24 24 24 23 23 22 22 22 22 22 22 22 22 22 23 23 24 25 26 27 28 29 29 30 31 31 32 33 34 34 35 35 35 34 34 34 34
34 34 34 34 33 31 30 29 27 25 23 22 22 22 23 24 23 21 19 18 17 16 15 14 15 15 16 16 17 18 19 20 21 23 23 24 25 25 23 22 21 21 21 21 22 24 24 24 23 23 22 22 22 21 21 21 21 21 21 21 20 20 21 22 23 24 25 26 26 27 28 29 30 31 32 33 33 34 34 34 34 34 33 33 33
33 33 33 33 32 29 28 27 25 23 21 21 21 22 23 23 21 19 17 16 15 14 13 13 13 13 14 15 15 16 17 18 19 21 22 22 22 22 22 21 20 20 19 20 21 22 22 22 21 21 21 20 20 20 20 20 20 19 19 18 18 19 20 21 22 22 23 24 25 26 27 27 29 30 31 32 33 34 34 33 33 33 33 32 32
31 32 32 31 30 27 26 25 23 21 20 19 20 21 22 21 19 16 15 14 13 12 12 11 12 12 13 14 15 16 16 16 17 19 20 20 20 21 20 19 19 19 18 19 19 20 21 20 20 19 19 19 19 19 19 19 18 18 17 17 18 19 20 20 20 21 22 23 24 25 26 27 28 30 31 32 33 33 33 33 32 32 31 31 31
31 31 30 29 28 25 23 22 20 19 18 18 19 20 19 18 16 14 12 11 10 10 10 10 10 11 12 13 14 15 15 15 16 17 18 18 18 18 18 18 18 18 18 17 18 19 19 19 19 18 18 18 18 18 18 17 17 16 17 17 18 18 18 18 19 20 21 22 23 24 25 26 27 29 30 31 32 32 32 32 31 30 30 29 29
29 29 28 27 25 23 21 19 19 18 18 17 17 17 17 16 14 12 10 9 9 8 8 8 9 10 11 13 13 14 14 15 15 15 16 16 16 17 16 16 17 18 17 17 17 17 18 18 18 17 17 17 17 17 17 16 16 16 16 16 17 17 17 17 18 19 20 21 22 23 24 25 27 28 29 30 31 31 32 31 31 30 28 28 28
28 27 26 24 22 20 19 18 18 18 17 16 16 15 15 14 12 10 8 7 8 8 7 7 8 10 11 12 13 13 14 15 15 15 15 15 15 15 15 15 15 16 16 16 16 16 16 16 17 16 16 16 16 16 16 16 15 15 15 15 15 15 16 16 17 18 18 19 21 22 23 24 26 27 29 29 30 30 31 30 30 29 27 26 27
27 26 24 22 20 18 17 17 17 17 16 15 14 13 13 12 11 8 7 6 7 7 7 7 9 10 11 12 13 13 14 15 15 15 16 16 15 15 15 14 14 14 15 15 14 14 15 15 15 15 15 15 15 15 15 15 15 15 14 14 14 15 15 16 16 17 18 19 20 21 22 24 26 27 28 28 28 29 29 29 29 28 26 25 25
26 25 23 20 18 17 16 16 16 16 15 13 12 11 11 11 10 8 6 5 5 6 7 8 9 10 11 11 12 12 13 14 15 15 16 16 15 15 15 15 14 13 14 14 14 14 14 14 15 15 15 15 15 15 15 14 14 14 13 13 14 14 14 15 15 16 17 18 19 21 22 24 25 27 27 27 27 28 28 28 28 27 25 24 24
24 23 21 18 17 16 15 15 15 15 13 12 11 10 10 9 9 8 6 5 5 6 6 7 8 9 10 11 12 13 13 14 15 15 15 15 15 15 15 15 14 13 14 15 14 14 13 14 14 15 15 15 15 15 14 14 13 13 13 13 13 13 13 14 14 15 16 17 18 20 21 23 25 26 26 26 26 27 27 28 28 27 25 23 23
22 21 19 17 16 15 15 15 14 13 11 10 10 9 8 8 9 9 7 5 5 5 6 7 7 8 10 11 12 13 13 13 14 15 14 15 15 14 14 15 14 14 14 15 14 14 14 14 14 14 14 14 14 14 14 13 13 12 12 12 12 13 13 13 14 15 15 16 18 19 21 22 24 24 25 25 25 26 26 27 27 26 25 23 22
22 21 19 17 15 15 14 14 13 11 10 9 9 9 8 8 9 9 7 6 5 5 6 6 7 8 10 11 12 13 13 14 14 15 15 15 15 14 14 14 14 14 14 14 14 13 14 14 14 14 14 14 14 14 13 12 12 12 12 11 11 12 12 12 13 14 15 16 17 19 20 21 22 23 23 24 24 25 25 26 26 26 25 23 22
22 21 20 17 15 14 14 13 12 11 9 9 9 8 8 8 8 9 8 7 5 5 6 7 8 9 10 11 12 13 13 14 15 16 16 15 15 14 13 13 14 14 14 13 13 13 14 14 13 14 14 14 13 13 12 12 12 11 11 11 10 11 11 12 12 13 14 15 17 18 19 20 21 22 22 23 23 24 24 25 25 25 24 23 21
21 21 20 17 14 13 13 12 12 11 9 8 8 8 8 8 8 8 8 7 6 6 7 8 9 10 10 11 12 13 14 14 15 16 16 15 15 14 13 13 14 14 14 14 13 13 14 14 13 13 13 13 12 12 12 11 11 11 10 10 10 10 10 11 12 12 14 15 16 17 19 20 21 21 22 22 22 23 23 24 24 25 24 23 21
20 21 20 17 14 13 13 12 11 10 9 8 7 8 8 8 8 9 8 8 8 8 9 10 10 10 10 11 12 13 14 13 14 15 15 15 15 14 13 13 13 14 14 14 14 14 14 14 13 13 13 13 12 12 11 11 11 10 9 9 9 9 10 10 11 12 13 14 15 17 18 19 20 20 21 21 22 22 23 23 23 24 24 23 21
19 20 19 17 14 13 12 11 10 9 8 7 7 7 7 7 8 9 8 8 9 10 11 11 9 7 7 8 10 12 13 13 13 14 15 15 15 15 14 13 13 13 13 14 14 14 14 14 13 13 13 12 12 12 11 10 9 9 8 8 8 9 9 10 11 11 12 13 15 16 17 19 19 20 20 21 21 21 22 22 22 22 23 23 22
18 18 18 17 15 13 11 10 10 9 7 6 6 6 6 7 8 8 9 9 9 11 12 12 11 7 2 3 6 9 10 11 11 13 14 15 15 15 14 14 14 13 13 13 14 14 14 13 13 13 13 12 12 11 10 9 9 8 8 8 8 8 9 10 10 11 12 13 14 16 17 18 19 19 20 20 20 21 21 21 22 22 22 22 22
16 17 17 17 16 14 11 9 9 8 7 5 5 6 5 6 7 8 8 9 9 11 12 13 12 10 6 3 4 6 7 7 8 10 12 13 14 14 13 13 14 13 13 13 14 14 13 13 12 12 12 12 11 10 9 9 8 8 7 7 8 8 8 9 10 10 12 13 14 16 17 18 18 19 19 20 20 20 20 21 21 21 21 21 21
15 16 17 18 16 14 11 9 8 8 6 5 4 5 5 5 6 7 7 7 8 10 11 12 12 11 9 6 4 5 5 5 5 7 9 10 12 13 13 13 14 14 13 13 13 13 12 12 12 12 12 11 10 9 9 8 8 7 7 7 8 8 8 8 9 10 12 13 14 15 16 17 18 19 19 19 19 20 20 20 20 20 20 21 20
14 15 16 17 16 14 11 9 8 8 7 5 4 4 4 4 4 5 5 6 7 9 10 11 11 10 9 7 5 4 5 4 4 6 8 9 10 12 12 13 13 14 13 13 12 12 12 12 12 11 11 11 10 9 8 8 7 7 7 7 7 7 8 8 9 11 12 13 14 15 16 17 18 18 19 19 19 19 20 20 20 20 20 20 20
14 14 14 15 15 13 11 9 7 7 7 6 4 4 4 3 3 4 4 5 6 7 8 9 10 9 8 7 6 4 3 3 4 5 7 8 9 10 11 12 13 13 13 12 12 11 11 11 11 11 11 10 9 8 8 7 7 7 7 7 7 7 8 9 10 11 12 13 14 15 16 17 18 18 19 19 19 19 19 19 19 19 19 19 19
13 13 13 13 13 12 10 8 6 7 7 6 5 5 4 3 3 3 4 4 6 6 7 8 8 8 7 6 5 4 3 2 3 5 6 7 8 9 10 11 11 11 11 11 11 10 11 11 11 11 11 10 9 8 7 7 7 7 7 7 7 7 8 9 10 11 12 13 14 15 16 17 18 18 19 19 19 19 20 19 19 19 19 19 19
13 13 13 12 11 11 10 8 6 5 5 5 5 5 4 3 2 2 3 4 5 6 6 6 7 7 6 6 5 5 4 2 2 4 6 7 7 8 9 9 10 9 9 9 9 10 10 10 10 10 10 9 8 7 7 6 6 6 6 7 7 8 9 10 10 12 13 14 15 16 17 18 18 19 19 19 19 19 20 20 20 20 19 19 19
13 14 13 11 10 9 8 7 6 4 4 4 5 5 3 2 1 2 2 3 4 5 5 5 5 5 5 5 5 5 4 3 2 3 5 6 7 7 8 8 8 9 9 9 9 10 10 9 9 9 8 8 6 6 6 6 6 6 6 7 7 8 9 10 11 12 13 14 15 16 17 18 19 19 19 20 20 20 20 20 20 20 20 20 19
12 13 12 10 9 8 7 7 6 5 4 4 4 3 2 1 1 1 2 2 3 4 4 4 5 5 4 4 4 4 4 3 2 3 4 6 6 7 7 8 8 9 9 9 9 9 9 8 8 8 7 6 5 5 5 6 6 6 7 8 8 9 10 11 12 13 14 15 16 17 18 18 19 19 20 20 20 20 21 21 21 20 20 20 19
12 12 11 9 8 7 7 6 6 5 4 4 4 4 2 1 1 1 2 2 3 3 4 4 4 5 4 4 4 4 4 3 3 3 4 6 6 7 8 8 9 9 9 8 8 8 8 7 7 7 6 6 5 5 5 5 5 6 7 8 9 10 11 12 13 14 15 16 17 18 18 19 20 20 20 21 21 21 21 22 21 21 21 20 20
11 11 10 9 7 7 6 6 6 6 5 5 5 4 2 1 1 1 2 2 2 3 4 5 5 5 4 4 4 4 4 4 4 4 5 6 7 7 8 9 9 9 8 7 7 7 6 6 6 5 5 5 5 4 4 5 6 6 7 8 10 11 11 12 13 15 16 17 18 19 19 20 20 21 21 21 22 22 22 22 22 22 22 21 21
11 10 9 8 7 6 6 6 6 5 5 4 4 3 2 1 1 1 1 1 1 2 3 5 5 5 5 4 4 4 5 5 5 5 5 6 7 8 8 9 9 8 7 6 6 5 5 5 5 4 4 4 4 4 4 5 6 7 8 9 10 11 12 13 14 16 17 18 19 20 21 21 21 22 22 22 23 23 23 23 23 23 23 22 21
11 9 8 7 7 6 6 6 6 5 5 5 4 3 1 1 1 1 1 0 1 1 2 3 4 5 5 5 5 5 5 6 5 5 6 7 8 9 9 9 9 8 7 5 4 4 4 4 4 4 4 4 4 4 4 5 6 8 9 10 10 11 12 14 15 17 18 19 20 21 21 22 22 23 23 24 24 24 24 24 24 24 23 23 22
10 8 8 7 7 6 7 6 6 5 5 5 4 3 1 0 1 1 1 2 2 1 2 3 4 4 4 5 5 5 5 6 6 6 7 8 9 9 10 9 8 7 6 4 4 3 3 3 3 3 3 3 3 4 5 6 7 8 9 10 11 12 13 14 16 17 19 20 21 21 22 23 23 24 24 25 25 25 25 25 25 25 25 24 24
9 8 7 7 7 7 7 6 6 5 5 5 4 3 2 1 1 0 2 3 2 2 2 3 3 4 4 5 6 5 5 6 6 6 8 9 10 10 10 9 8 6 5 4 3 3 2 2 2 1 2 2 3 4 6 7 8 8 9 10 11 13 14 16 17 18 19 20 21 22 23 23 24 25 25 26 26 26 26 26 26 26 25 25 25
Wind_Direction
286 285 285 284 284 283 283 282 281 280 280 279 278 276 275 274 273 273 273 272 271 269 267 266 266 264 262 261 259 258 257 257 257 256 256 256 255 254 253 252 252 252 253 253 252 252 253 255 256 255 255 255 255 257 258 260 261 263 265 267 268 269 271 273 278 281 284 285 288 290 292 293 294 295 297 298 300 302 304 305 304 304 303 302 302
287 286 286 285 285 284 284 283 283 282 281 280 278 276 275 273 272 271 270 269 268 267 265 265 265 264 262 260 259 257 256 256 256 256 256 255 255 254 253 251 251 252 252 252 251 251 253 254 255 255 255 255 255 256 258 259 261 263 265 266 267 269 271 274 278 281 284 286 289 290 292 293 294 295 297 299 300 303 304 305 305 305 304 303 302
292 289 287 286 285 285 284 284 283 283 282 280 278 277 275 273 272 270 269 267 266 265 264 262 263 263 261 259 258 256 254 255 256 256 256 255 254 254 253 251 251 252 252 251 250 251 252 253 255 255 256 256 256 257 258 259 261 263 264 266 267 269 272 274 277 281 284 286 289 291 292 293 294 295 297 299 301 303 304 305 305 305 304 302 302
299 296 293 290 288 287 286 285 284 283 282 281 279 278 275 274 272 270 268 266 265 264 263 261 260 260 259 258 256 254 253 254 255 256 256 255 253 253 252 252 252 252 252 251 251 251 252 253 254 255 256 256 257 258 259 260 261 263 264 265 267 269 272 274 277 280 283 286 289 290 292 294 295 296 297 299 301 303 304 305 305 305 304 303 302
302 301 298 296 294 292 290 288 287 285 284 282 281 279 276 274 272 270 268 266 265 264 262 260 258 257 257 256 254 253 253 253 254 254 254 253 252 251 251 251 252 253 253 252 251 251 253 254 254 255 255 256 258 259 260 261 261 263 264 265 267 269 271 274 277 279 283 286 289 291 292 294 295 296 298 299 301 303 304 305 305 304 304 303 303
304 303 302 301 299 298 296 294 292 290 288 286 284 281 278 275 272 270 267 266 264 263 261 258 256 255 255 254 252 251 252 252 253 253 252 252 252 251 251 251 252 253 253 252 252 252 253 254 255 256 256 256 258 260 261 262 262 263 264 265 267 268 271 274 277 280 283 286 289 291 292 293 294 296 298 300 302 303 304 305 305 304 303 304 304
306 305 304 303 302 300 299 297 296 294 292 290 288 285 282 278 275 271 267 265 263 261 259 257 254 252 252 251 250 250 250 251 252 251 251 251 250 250 250 251 252 253 253 252 252 252 253 255 256 257 257 257 259 260 262 263 263 263 263 265 266 268 271 274 277 280 283 286 288 290 292 293 294 296 299 301 302 303 304 305 304 304 304 304 304
308 307 306 305 304 302 301 300 299 298 295 293 290 287 284 281 278 274 269 266 263 260 258 255 252 250 249 249 249 249 250 250 250 250 250 250 249 249 249 250 251 253 252 252 252 252 254 255 256 258 258 258 259 261 262 263 264 263 263 264 265 267 271 274 277 280 283 285 288 290 291 292 294 297 299 301 302 303 304 304 304 305 305 305 305
310 309 308 307 306 305 304 303 302 301 298 296 293 290 287 284 281 277 272 268 265 262 258 255 252 249 247 246 247 248 248 249 249 248 248 248 248 249 249 250 251 252 252 252 253 253 254 255 257 258 258 258 258 260 262 263 263 264 263 264 265 268 271 274 277 280 283 286 288 289 291 292 294 297 299 300 302 304 305 304 304 305 306 306 305
311 310 310 309 309 308 306 305 304 303 301 298 295 292 288 286 283 279 274 270 267 264 259 256 253 250 246 245 246 246 247 247 246 246 245 246 247 248 249 250 250 250 251 252 253 254 254 255 257 257 258 258 258 259 261 262 263 263 263 264 266 268 271 274 277 280 283 286 287 288 290 292 295 297 299 300 302 304 305 305 305 306 307 307 306
312 311 311 311 311 310 308 307 305 304 302 299 296 293 289 287 284 280 276 272 269 266 260 256 254 250 247 245 245 245 246 246 244 243 244 244 245 247 248 249 250 250 251 252 253 254 254 255 256 257 257 257 257 259 261 262 262 262 262 264 266 268 271 274 278 281 283 285 286 288 291 293 296 298 299 301 303 304 305 305 306 307 307 307 307
313 313 313 313 312 311 310 309 307 305 303 300 297 294 291 288 285 280 276 274 271 267 261 256 254 250 246 245 244 244 244 244 244 243 243 243 244 246 248 250 250 251 252 253 254 254 254 255 257 256 256 256 256 258 260 261 262 262 262 264 266 268 271 274 278 281 283 285 287 289 291 294 297 298 300 303 304 304 305 306 306 306 306 307 305
314 314 314 314 313 313 312 311 309 307 304 301 298 295 293 290 286 281 277 274 272 269 262 256 254 250 247 245 244 243 242 242 243 243 243 243 243 245 248 250 250 252 253 253 254 254 253 254 256 256 255 255 255 257 258 260 261 261 263 264 266 269 271 275 279 281 283 286 288 290 292 295 297 299 301 303 304 305 306 306 307 306 306 306 304
315 315 315 315 315 314 314 313 311 308 305 302 299 296 294 292 289 283 279 276 274 272 266 259 255 252 248 245 244 242 241 240 241 243 243 243 243 244 246 248 250 252 254 253 253 254 253 253 254 255 255 254 254 255 256 258 260 262 263 265 268 270 273 277 280 281 283 286 288 291 293 295 297 300 302 304 304 305 306 307 307 306 306 305 304
315 315 315 315 316 316 316 314 311 309 306 302 299 298 296 294 292 287 282 279 277 275 271 264 258 254 249 245 243 243 241 240 241 243 243 243 243 243 243 245 247 251 253 253 253 253 253 252 252 254 255 253 252 253 254 257 259 261 263 266 268 272 276 279 281 282 285 287 289 292 295 297 299 301 303 304 304 305 306 306 306 306 306 306 305
314 314 315 315 316 317 316 315 312 310 307 303 299 298 298 297 295 290 284 280 279 277 274 268 262 257 251 245 243 242 242 241 241 242 242 242 241 241 240 241 245 249 252 253 252 251 251 250 251 253 254 252 251 251 252 255 258 260 263 266 269 274 278 280 282 284 286 289 292 294 297 298 300 302 303 304 305 305 306 306 307 308 309 308 307
313 313 314 315 316 317 317 315 312 309 306 303 300 298 298 298 297 294 288 282 279 277 275 270 264 258 251 245 242 242 243 241 239 239 239 238 238 237 237 239 243 247 251 251 251 250 249 248 250 252 251 250 250 250 250 253 256 259 263 267 271 276 279 282 284 286 288 291 294 296 298 300 302 303 304 305 305 306 307 308 309 310 311 310 309
313 313 313 315 316 317 317 315 312 309 305 302 300 299 298 297 296 295 292 286 281 278 276 272 264 257 251 245 241 241 241 239 236 234 234 234 235 235 236 239 243 246 249 250 250 250 248 246 247 248 247 248 248 247 248 252 256 260 264 268 272 276 280 283 286 288 291 294 296 298 300 302 304 305 305 306 307 307 308 308 310 312 311 309 309
314 313 313 315 316 317 317 315 312 308 304 302 300 299 299 298 295 293 291 288 283 280 277 271 263 255 249 244 240 238 236 235 232 231 231 231 233 235 237 239 242 245 247 249 249 248 246 243 241 242 243 245 246 245 248 252 257 261 265 269 273 276 280 284 287 290 293 295 298 300 303 305 306 307 308 308 309 309 309 309 311 311 310 310 310
315 313 313 316 317 316 316 315 312 308 305 303 301 300 300 299 296 293 290 287 284 282 277 268 260 252 245 242 240 235 232 231 230 228 228 229 231 233 237 239 241 242 245 247 247 245 241 239 239 239 240 243 243 244 248 253 257 262 266 269 273 277 281 285 288 292 294 297 300 303 305 308 309 310 311 311 311 311 311 311 312 311 310 311 311
316 316 316 317 318 316 316 315 311 308 305 303 302 302 302 301 298 294 290 284 281 281 276 265 257 249 241 239 239 233 228 228 228 227 226 228 230 233 235 238 239 240 242 244 243 240 237 236 237 237 238 240 242 245 249 251 255 261 266 269 273 277 282 287 290 293 296 299 302 306 308 310 312 313 314 314 314 314 314 314 314 313 312 312 312
317 318 318 318 318 317 316 314 311 308 306 304 304 305 305 304 301 296 288 280 278 279 274 263 255 247 240 238 234 228 225 226 226 225 225 226 229 231 232 234 236 238 238 239 239 236 234 234 235 236 237 239 241 244 247 250 254 261 265 268 272 278 284 288 291 294 297 301 305 308 311 313 315 316 317 318 318 318 317 317 317 316 314 313 312
317 319 319 318 318 318 317 314 312 309 307 306 307 308 308 307 304 297 287 277 276 277 271 260 251 243 238 233 227 223 224 225 223 222 223 225 227 229 230 230 231 233 234 235 235 234 232 232 233 234 235 237 239 241 245 249 254 259 263 267 274 281 285 288 292 295 300 304 307 311 314 316 317 319 320 321 321 321 320 320 319 318 316 315 314
318 318 319 319 319 320 318 316 313 311 309 310 311 312 311 310 307 301 288 276 273 272 266 256 248 240 234 227 222 221 223 222 220 219 221 223 225 226 228 227 227 229 231 233 232 231 231 231 231 231 232 235 238 240 244 248 252 257 263 270 277 282 285 289 293 297 302 306 310 313 316 319 320 320 322 323 324 324 323 322 321 320 318 317 318
318 318 319 320 320 320 319 317 315 313 311 312 314 314 314 313 311 306 292 275 269 268 260 250 243 236 227 221 220 220 219 219 219 218 218 221 223 225 227 228 226 226 228 231 231 230 229 228 228 228 231 234 237 240 244 247 251 258 266 273 278 282 286 289 294 299 304 309 313 316 319 321 322 322 323 325 327 327 327 326 324 324 322 321 322
320 320 321 322 321 320 320 318 316 314 313 313 316 318 318 316 316 312 297 277 267 262 252 242 237 230 221 218 219 218 217 217 217 216 218 221 223 225 228 229 227 224 226 229 230 229 228 226 225 226 228 232 236 241 245 248 254 261 268 274 278 282 285 289 295 301 307 312 315 318 321 323 323 324 326 328 330 331 330 330 329 328 326 325 326
325 325 324 323 323 322 320 319 317 316 315 316 318 321 322 322 321 316 301 281 266 256 246 237 231 226 222 222 221 219 218 219 219 219 221 223 224 226 228 229 227 225 226 228 229 228 226 224 221 222 226 232 238 242 245 250 257 263 268 273 277 280 285 291 297 304 309 314 317 320 322 324 325 327 329 331 332 333 334 334 333 332 330 328 329
328 327 326 325 324 322 321 320 320 319 319 320 322 323 325 328 329 321 306 286 266 253 245 237 229 225 223 224 224 222 223 223 222 223 224 224 224 227 228 228 229 228 225 225 226 225 222 220 220 223 229 235 240 243 246 251 257 262 267 272 276 281 286 293 301 307 311 315 319 322 324 325 328 330 332 333 335 336 337 338 338 336 334 332 332
329 329 328 326 325 324 324 323 323 323 323 324 325 325 326 331 333 326 312 292 269 258 250 240 233 230 227 225 224 223 223 224 224 224 224 223 224 226 226 227 229 228 222 218 218 218 219 221 223 227 232 237 239 241 244 249 255 260 265 269 274 281 288 296 304 309 313 317 321 324 326 327 330 332 334 335 337 339 340 341 341 341 338 336 336
333 333 332 329 327 328 327 325 324 326 327 328 330 329 328 333 336 331 319 297 275 266 257 246 240 238 233 230 227 225 223 223 223 222 222 222 223 225 225 224 224 222 216 212 213 216 219 222 226 229 233 236 237 238 242 247 251 256 261 266 273 281 289 298 305 310 314 319 323 325 327 330 333 335 336 337 339 341 343 344 344 344 342 340 340
338 339 337 332 329 330 329 326 326 329 332 334 335 335 333 335 339 337 327 306 285 274 267 260 254 248 241 236 232 229 226 222 219 219 220 221 220 221 222 220 218 214 210 210 213 217 219 222 226 230 232 234 235 237 240 244 248 253 258 264 273 282 291 300 306 311 316 321 324 326 329 332 335 336 338 339 341 343 345 346 347 347 345 343 343
341 342 339 335 332 332 331 329 330 333 335 336 337 339 341 343 344 342 336 321 299 283 280 277 270 260 250 241 235 231 227 223 219 219 219 219 218 218 217 216 213 208 206 208 213 218 219 221 225 228 230 232 234 235 238 242 246 250 256 263 273 283 293 301 307 312 318 322 325 328 332 335 337 338 340 341 342 344 346 347 348 349 348 346 345
340 342 340 337 336 334 332 332 334 336 338 338 337 340 345 348 348 348 347 338 319 296 290 288 281 270 258 245 236 232 228 224 221 220 219 218 216 215 215 214 211 207 207 211 215 219 221 222 224 228 229 231 233 234 236 241 244 248 255 264 274 284 294 302 309 314 319 323 327 331 334 336 338 340 342 343 344 346 347 348 349 350 350 349 347
339 341 340 339 337 334 332 332 333 336 340 342 340 343 347 348 350 354 354 350 339 319 306 300 289 276 262 248 236 230 226 224 222 220 218 216 214 213 214 214 212 211 213 214 215 218 222 223 225 228 229 230 231 232 235 238 242 247 256 266 276 287 296 303 310 315 320 325 329 332 335 338 340 342 343 344 346 347 348 349 350 351 352 351 349
337 339 340 340 338 333 331 330 331 335 343 345 343 347 351 351 355 360 0 358 355 342 330 322 306 283 264 248 234 225 222 224 223 218 215 214 212 211 213 214 214 215 217 215 213 216 221 223 225 228 228 229 229 230 232 235 240 246 256 266 277 289 297 304 311 316 321 326 330 334 336 339 341 342 343 345 347 348 349 350 351 351 352 352 351
335 336 339 341 338 331 328 327 328 334 342 345 344 351 358 358 1 7 9 9 8 2 356 352 341 311 271 243 228 221 218 221 221 217 214 214 213 213 215 215 214 215 215 213 212 215 219 222 225 226 227 227 227 227 228 232 238 246 256 268 279 290 298 304 311 317 323 327 332 335 337 339 341 342 343 345 347 348 349 350 351 352 353 353 352
333 335 339 341 337 330 325 323 323 327 335 342 348 357 1 359 4 13 17 15 13 10 8 10 9 4 345 220 212 209 209 213 217 215 213 212 212 214 216 214 212 212 210 209 211 215 219 222 224 224 225 224 222 222 225 231 238 247 258 270 282 291 298 305 313 319 324 328 332 335 338 340 342 342 343 345 346 348 349 350 351 352 353 354 354
332 334 338 340 337 330 323 318 316 318 326 338 349 357 355 353 4 16 19 18 17 15 15 19 24 28 41 95 163 176 181 193 204 207 208 209 207 208 209 208 207 208 206 206 208 212 216 220 222 222 221 219 217 217 222 230 238 248 260 273 284 291 299 309 316 320 325 329 332 335 338 340 342 342 343 344 346 347 348 349 350 351 353 354 355
331 331 334 338 339 334 326 316 307 305 313 325 339 348 347 350 4 14 15 16 19 19 19 23 28 35 46 66 112 145 154 163 176 186 194 197 197 199 202 202 203 205 205 204 205 208 212 215 217 216 215 212 211 215 222 231 240 251 263 275 284 293 302 311 317 320 325 329 331 334 338 340 341 342 342 343 345 346 346 347 349 350 351 352 353
330 330 333 337 339 337 331 318 301 296 302 310 320 334 340 343 353 2 6 12 18 21 22 24 28 36 45 55 77 120 145 155 165 174 182 185 189 194 198 199 200 203 204 203 203 206 208 210 210 209 207 206 208 215 225 234 243 255 267 277 286 295 305 312 317 320 324 328 330 334 337 338 339 341 342 343 344 344 345 346 347 348 348 349 350
329 330 332 335 338 338 335 326 308 296 295 296 301 315 325 325 335 348 359 9 15 19 21 23 27 35 43 49 61 92 127 150 162 172 181 185 187 191 195 197 200 202 203 202 202 202 204 205 204 203 202 203 208 217 227 237 248 261 271 280 289 299 307 313 317 320 323 327 330 332 335 336 338 339 341 342 342 343 343 344 345 345 346 347 347
331 331 331 333 336 338 339 336 320 301 294 294 300 310 315 316 329 347 359 7 14 21 25 25 27 32 36 38 50 72 94 121 151 164 174 182 185 187 190 196 200 200 200 200 199 198 198 198 199 200 202 204 209 219 231 243 255 265 273 282 292 302 308 312 316 320 322 325 329 331 332 334 336 337 339 340 340 341 341 341 342 343 343 344 344
332 331 330 331 333 337 340 341 331 311 300 303 309 312 315 316 323 343 354 2 12 22 27 26 26 27 24 25 39 60 70 78 131 159 168 174 179 184 188 192 195 194 192 192 191 191 193 195 197 200 203 207 214 226 239 251 261 268 276 287 296 304 309 312 315 319 321 324 327 329 330 332 333 335 336 337 337 338 339 339 339 340 340 340 340
333 334 333 332 331 333 336 340 336 323 313 312 312 311 312 308 305 329 344 353 6 14 17 18 20 21 16 14 27 47 57 62 106 157 169 172 174 181 187 187 185 182 180 180 183 187 192 195 196 200 205 211 220 235 248 256 265 272 282 293 300 304 308 312 315 318 321 323 326 327 328 330 331 332 333 334 334 335 336 336 336 336 336 336 337
335 337 337 336 334 333 335 337 336 329 322 320 319 316 311 291 290 319 327 339 359 4 4 7 14 17 15 11 18 32 46 59 95 149 171 174 173 174 178 177 173 171 173 176 181 187 191 193 196 200 207 214 225 239 250 261 272 281 289 297 302 305 309 312 315 319 321 323 325 326 326 327 329 329 330 331 331 332 332 332 332 332 332 332 332
337 339 341 342 341 338 337 339 340 335 330 328 324 318 306 282 284 311 319 337 358 2 3 8 13 16 19 18 17 24 39 61 93 128 155 166 166 166 167 167 166 167 170 173 179 184 189 193 197 202 208 216 226 240 254 268 282 290 296 302 307 310 312 314 317 320 322 323 324 324 325 326 326 327 327 328 328 329 329 328 328 328 328 328 328
340 342 344 346 347 345 342 341 341 340 339 335 327 316 303 279 267 290 309 343 9 15 18 21 19 19 26 30 25 27 43 68 93 113 132 149 157 158 161 163 164 164 164 166 172 179 187 193 198 203 209 216 227 244 263 280 292 298 301 306 310 312 313 315 317 319 321 322 323 323 324 324 325 325 326 326 326 326 326 325 325 325 324 323 323
343 343 345 349 353 354 348 342 339 340 340 335 329 322 309 277 257 280 296 341 43 43 33 30 28 29 37 43 39 38 55 76 93 107 123 137 145 148 151 157 160 160 158 159 165 174 183 190 197 204 210 218 232 252 273 289 299 303 305 308 310 312 314 315 318 319 320 321 322 322 322 323 324 324 324 324 324 323 323 323 322 321 320 319 318
346 344 345 349 355 359 355 348 343 342 339 335 336 339 328 259 248 272 277 140 88 69 50 45 42 40 46 52 49 50 66 82 92 105 121 130 135 139 142 147 152 154 152 152 156 163 173 184 195 205 214 225 245 265 283 297 304 306 308 310 311 313 315 316 318 320 320 320 321 322 322 322 322 322 322 323 322 322 321 320 319 318 317 316 315
350 347 346 349 355 0 360 357 354 352 351 351 358 12 20 324 277 253 183 155 138 117 90 74 61 51 53 58 57 58 73 85 92 107 122 127 130 134 137 139 142 144 144 142 144 150 160 175 189 203 218 239 263 282 295 303 308 309 311 313 314 315 316 317 319 320 320 320 321 321 321 322 322 322 321 321 321 320 319 318 317 316 315 314 313
356 354 354 356 359 2 3 1 359 0 2 6 13 22 25 8 342 185 160 155 147 132 112 94 77 62 59 62 61 64 77 89 97 110 123 127 128 131 133 134 135 136 136 134 133 134 140 151 169 203 245 271 289 298 303 308 311 313 315 316 317 318 319 320 320 321 321 321 321 322 321 322 321 321 320 320 319 318 317 316 315 314 313 311 310